Volver al catálogo

BREEZE-M R/B

ActivoHEO
NORAD 33455·ROCKET BODY·🇷🇺 Russia

Lanzado Dec 10, 2008 desde Baikonur Cosmodrome

Loading…

Próximos Pases (próximas 24 horas)

TLE

EnvejeciendoSource: Space-Track

Época: Aug 29, 2026, 20:15 UTC

1 33455U 08063C   26241.84419706 -.00000250  00000-0  00000+0 0  9998
2 33455  18.4112 125.1784 5603611 176.9761  17.5770  1.97941326128130

Sigue BREEZE-M R/B en tiempo real con AllMySat

Download on the App Store